FW1194 Weather Reports


time (UTC)temp
C
wind
direction
speed
KPH
gust
KPH
rain 1hr
cm
rain 24hr
cm
rain mn
cm
humidity
%
barometer
mb
20260503173217 12 180 16.1 29.0 0.00 0.00 0.00 64 1009.9
20260503172217 12 180 11.3 25.7 0.00 0.00 0.00 67 1010.3
20260503171217 12 180 9.7 14.5 0.00 0.00 0.00 67 1010.8
20260503170217 11 180 14.5 22.5 0.00 0.00 0.00 67 1011.0
20260503150216 11 203 11.3 24.1 0.00 0.00 0.00 61 1012.1
20260503140216 10 225 8.0 11.3 0.00 0.00 0.00 59 1012.8
20260503131216 9 225 17.7 20.9 0.00 0.00 0.00 59 1013.1
20260503130216 9 203 16.1 19.3 0.00 0.00 0.00 59 1013.2
20260503120216 8 203 12.9 16.1 0.00 0.00 0.00 58 1013.1
20260503110216 7 225 11.3 14.5 0.00 0.00 0.00 60 1012.8
20260503100216 7 203 11.3 17.7 0.00 0.00 0.00 62 1013.0
20260503090215 6 225 8.0 12.9 0.00 0.00 0.00 61 1013.3
20260503081218 6 225 8.0 11.3 0.00 0.00 0.00 59 1013.6
20260503080217 6 203 8.0 9.7 0.00 0.00 0.00 59 1013.6
20260503072218 6 203 6.4 9.7 0.00 0.00 0.00 59 1013.7
20260503071217 6 225 4.8 8.0 0.00 0.00 0.00 59 1013.7
20260503070218 6 225 3.2 6.4 0.00 0.00 0.00 58 1013.9
20260503060217 6 203 4.8 6.4 0.00 0.00 0.00 57 1014.3
20260503054217 6 203 4.8 8.0 0.00 0.00 0.00 57 1014.4
20260503053218 6 225 6.4 8.0 0.00 0.00 0.00 58 1014.5
20260503052217 6 203 6.4 8.0 0.00 0.00 0.00 58 1014.6
20260503051217 6 203 4.8 8.0 0.00 0.00 0.00 58 1014.6
20260503050217 6 203 3.2 4.8 0.00 0.00 0.00 58 1014.8
20260503045216 7 225 3.2 6.4 0.00 0.00 0.00 58 1014.8
20260503044216 7 225 3.2 6.4 0.00 0.00 0.00 58 1014.8
20260503043216 7 225 6.4 9.7 0.00 0.00 0.00 58 1014.8
20260503042216 7 225 4.8 6.4 0.00 0.00 0.00 58 1014.9
20260503041216 7 225 4.8 8.0 0.00 0.00 0.00 58 1014.9
20260503040216 7 203 4.8 6.4 0.00 0.00 0.00 58 1014.9
20260503035216 7 203 4.8 6.4 0.00 0.00 0.00 58 1015.0
20260503034216 7 203 4.8 8.0 0.00 0.00 0.00 57 1014.9
20260503033236 7 203 3.2 4.8 0.00 0.00 0.00 57 1015.0
20260503032216 7 203 4.8 6.4 0.00 0.00 0.00 56 1015.0
20260503031216 7 203 3.2 4.8 0.00 0.00 0.00 56 1015.1
20260503030236 8 203 3.2 4.8 0.00 0.00 0.00 55 1015.1
20260503025215 8 225 3.2 4.8 0.00 0.00 0.00 54 1015.2
20260503024216 8 203 4.8 6.4 0.00 0.00 0.00 53 1015.2
20260503023236 8 203 3.2 4.8 0.00 0.00 0.00 53 1015.1
20260503022216 8 203 4.8 6.4 0.00 0.00 0.00 52 1015.2
20260503021215 8 203 3.2 4.8 0.00 0.00 0.00 51 1015.2
20260503020216 9 203 3.2 6.4 0.00 0.00 0.00 50 1015.0
20260503015238 9 180 3.2 4.8 0.00 0.00 0.00 48 1014.9
20260503014218 10 203 3.2 4.8 0.00 0.00 0.00 47 1014.8
20260503013238 10 203 4.8 4.8 0.00 0.00 0.00 47 1014.9
20260503012218 10 203 3.2 4.8 0.00 0.00 0.00 45 1014.8
20260503011217 10 203 3.2 4.8 0.00 0.00 0.00 44 1014.8
20260503010218 11 225 6.4 8.0 0.00 0.00 0.00 43 1014.8
20260503005218 11 225 4.8 8.0 0.00 0.00 0.00 42 1014.8
20260503004218 11 203 6.4 8.0 0.00 0.00 0.00 41 1014.8
20260503003236 12 203 6.4 8.0 0.00 0.00 0.00 39 1014.6
20260503002238 12 248 4.8 6.4 0.00 0.00 0.00 38 1014.8
20260503001218 12 225 9.7 11.3 0.00 0.00 0.00 37 1014.9
20260503000218 12 248 9.7 12.9 0.00 0.00 0.00 36 1014.7
20260502235217 12 270 14.5 19.3 0.00 0.00 0.00 35 1014.7
20260502234217 12 248 8.0 11.3 0.00 0.00 0.00 37 1014.7
20260502233218 12 293 6.4 6.4 0.00 0.00 0.00 36 1015.0
20260502232217 13 225 14.5 20.9 0.00 0.00 0.00 35 1015.0
20260502231238 13 270 17.7 25.7 0.00 0.00 0.00 34 1015.1
20260502230238 13 225 12.9 16.1 0.00 0.00 0.00 36 1015.1
20260502225217 13 270 11.3 12.9 0.00 0.00 0.00 35 1015.2
20260502224217 13 225 8.0 14.5 0.00 0.00 0.00 35 1015.3
20260502223217 14 270 16.1 24.1 0.00 0.00 0.00 35 1015.4
20260502222217 14 270 19.3 25.7 0.00 0.00 0.00 35 1015.4
20260502221217 13 248 12.9 20.9 0.00 0.00 0.00 36 1015.3
20260502220257 13 270 8.0 12.9 0.00 0.00 0.00 36 1015.4
20260502215218 13 270 16.1 19.3 0.00 0.00 0.00 36 1015.6
20260502214217 13 270 16.1 22.5 0.00 0.00 0.00 38 1015.5
20260502213217 12 270 17.7 25.7 0.00 0.00 0.00 39 1015.6
20260502212217 12 315 6.4 11.3 0.00 0.00 0.00 39 1015.7
20260502211217 12 315 8.0 12.9 0.00 0.00 0.00 39 1015.8
20260502210217 12 270 4.8 6.4 0.00 0.00 0.00 40 1015.8
20260502205218 12 270 9.7 14.5 0.00 0.00 0.00 38 1016.0
20260502204217 13 270 17.7 24.1 0.00 0.00 0.00 36 1016.2
20260502203217 13 225 9.7 17.7 0.00 0.00 0.00 38 1016.2
20260502202217 13 225 4.8 6.4 0.00 0.00 0.00 38 1016.3
20260502201217 13 248 12.9 17.7 0.00 0.00 0.00 38 1016.5
20260502200237 13 293 8.0 12.9 0.00 0.00 0.00 37 1016.7
20260502195237 13 293 17.7 22.5 0.00 0.00 0.00 38 1016.8
20260502194217 12 248 3.2 6.4 0.00 0.00 0.00 40 1016.9
20260502193238 12 270 8.0 12.9 0.00 0.00 0.00 41 1017.1
20260502192217 11 315 9.7 17.7 0.00 0.00 0.00 41 1017.2
20260502191218 11 315 6.4 11.3 0.00 0.00 0.00 39 1017.3
20260502190217 12 293 8.0 17.7 0.00 0.00 0.00 39 1017.4
20260502185217 12 0 3.2 6.4 0.00 0.00 0.00 39 1017.5
20260502184217 12 293 8.0 16.1 0.00 0.00 0.00 41 1017.6
20260502183258 12 293 11.3 20.9 0.00 0.00 0.00 39 1017.7
20260502182217 11 315 11.3 16.1 0.00 0.00 0.00 43 1017.8
20260502181217 11 293 4.8 8.0 0.00 0.00 0.00 41 1017.9
20260502180217 11 0 8.0 12.9 0.00 0.00 0.00 39 1018.0